Monterey, CA

10:45 PM PDT on May 27, 2015 (GMT -0700)
Monterey Peninsula | | Change Station
CLOSE
Current Station
Airport
Location: Monterey,
Elevation: 253 ft
Nearby Weather Stations

Elev 253 ft 36.59 °N, 121.84 °W | Updated 51 minutes ago

Overcast
Overcast
56 °F
Feels Like 56 °F
N
9
Wind Variable Wind from WSW

Today
High -- | Low -- °F
--% Chance of Precip.
Yesterday
High -- | Low -- °F
Precip. -- in
5:52 AM 8:16 PM
Waxing Gibbous, 73% visible
Pressure 30.09 in
Visibility 10.0 miles
Clouds Overcast 900 ft
Dew Point 51 °F
Humidity 84%
Rainfall 0.00 in
Snow Depth Not available.
UV 0 out of 12
Pollen 5.80 out of 12
Air Quality Not available.
Flu Activity Sporadic
METAR KMRY 280454Z 24008KT 10SM OVC009 13/11 A3005 RMK AO2 SLP188 T01330106

More Conditions Fewer Conditions

Pressure 30.09 in
Visibility 10.0 miles
Clouds Overcast 900 ft
Dew Point 51 °F
Humidity 84%
Rainfall 0.00 in
Snow Depth Not available.
UV 0 out of 12
Pollen 5.80 out of 12
Air Quality Not available.
Flu Activity Sporadic
METAR KMRY 280454Z 24008KT 10SM OVC009 13/11 A3005 RMK AO2 SLP188 T01330106

More Conditions Fewer Conditions

10-Day Weather Forecast

Almanac

Astronomy

May. 27, 2015 Rise Set
Actual Time
Civil Twilight
Nautical Twilight
Astronomical Twilight
Moon
Length of Visible Light
Length of Day
Tomorrow will be .
, % of the Moon is Illuminated

Today's Extremes

State Highs State Lows

Community

WunderPhotos

Upload Photos

1,824,931 photos uploaded!

WunderBlogs® & News

Nearby

Air Quality

  Air Quality AQ Index Pollutant
Not available.

Snow Depth

Station Depth Elevation

Earthquake Activity

City Distance Mag. Time & Date
Minimum magnitude displayed is 2.5.

Coastal Water Temperatures

Place Temperature

Stations

Nearby Weather Stations

Station Location Temp. Windchill Dew Point Humidity Wind Precip. Elev Updated Type